Location: Dessau
(51.7984°N, 12.2168°E)
Time: 07:23:26
(UTC+02:00)

ISS - Visible Passes

Search period start: 29 March 2017 00:00
Search period end: 08 April 2017 00:00
Orbit: 399 x 409 km, 51.6° (Epoch: 29 March)

Date Brightness Start Highest point End Pass type
(mag) Time Alt. Az. Time Alt. Az. Time Alt. Az.
29 Mar -2.9 21:42:49 10° SW 21:45:05 35° SSW 21:45:05 35° SSW visible
30 Mar -3.0 20:50:43 10° SW 20:53:41 32° SSE 20:55:19 20° ESE visible
30 Mar -1.7 22:26:40 10° WSW 22:28:00 22° WSW 22:28:00 22° WSW visible
31 Mar -3.9 21:34:19 10° WSW 21:37:34 68° SSE 21:38:03 57° ESE visible
01 Apr -3.6 20:42:01 10° WSW 20:45:13 52° SSE 20:47:58 13° E visible
01 Apr -2.7 22:18:19 10° W 22:20:37 42° W 22:20:37 42° W visible
02 Apr -3.9 21:25:54 10° W 21:29:11 85° S 21:30:25 36° E visible
02 Apr -1.0 23:02:22 10° W 23:03:04 15° W 23:03:04 15° W visible
03 Apr -3.8 20:33:30 10° WSW 20:36:45 74° SSE 20:40:02 10° E visible
03 Apr -3.5 22:09:56 10° W 22:12:46 63° W 22:12:46 63° W visible
04 Apr -3.9 21:17:29 10° W 21:20:46 90° SSW 21:22:25 27° E visible
04 Apr -1.4 22:53:58 10° W 22:55:04 19° W 22:55:04 19° W visible
05 Apr -3.8 20:25:02 10° W 20:28:18 88° S 20:31:36 10° E visible
05 Apr -3.8 22:01:29 10° W 22:04:40 66° SSW 22:04:40 66° SSW visible
06 Apr -3.9 21:09:02 10° W 21:12:18 81° S 21:14:15 22° ESE visible
06 Apr -1.6 22:45:36 10° W 22:46:54 20° WSW 22:46:54 20° WSW visible
07 Apr -3.4 21:53:01 10° W 21:56:10 45° SSW 21:56:28 43° S visible
